Location: Boca do Mato
(22.9085°S, 43.2930°W)
Time: 10:51:38
(UTC+00:00)

Cosmos 2266 Rocket - Pass Details

Date: 30 October 2020
Orbit: 935 x 1007 km, 82.9° (Epoch: 28 November)

Event Time Altitude Azimuth Distance (km) Brightness Sun altitude
Rises 07:19:34 0° 171° (S) 3,664 7.4 -11.6°
Reaches altitude 10° 07:22:23 10° 162° (SSE) 2,701 6.9 -11.0°
Maximum altitude 07:27:52 33° 99° (E) 1,535 5.9 -9.8°
Drops below altitude 10° 07:33:13 10° 36° (NE) 2,645 6.5 -8.7°
Sets 07:35:55 0° 26° (NNE) 3,578 7.1 -8.1°
